Madison, SD

5:33 PM CDT on April 29, 2017 (GMT -0500)
Madison Municipal

Weather History for KMDS - December, 2012

Change the Weather History Date:

Friday, December 7, 2012

  Actual Average Record
Temperature  
Mean Temperature 24 °F -  
Max Temperature 28 °F 28 °F 41 °F (2015)
Min Temperature 19 °F 11 °F -16 °F (2013)
Degree Days  
Heating Degree Days 42    
Moisture  
Dew Point 25 °F    
Average Humidity 92    
Maximum Humidity 100    
Minimum Humidity 80    
Precipitation  
Precipitation 3.53 in - - ()
Sea Level Pressure  
Sea Level Pressure 29.97 in    
Wind  
Wind Speed 6 mph (East)    
Max Wind Speed 14 mph    
Max Gust Speed -    
Visibility 7 miles    
Events Fog , Snow    
Averages and records for this station are not official NWS values.
T = Trace of Precipitation, MM = Missing Value Source: NWS Daily Summary

Daily Weather History Graph

Daily Weather History Graph

Search for Another Location

Airport or City:

Trip Planner

Search our weather history database for the weather conditions in past years. The results will help you decide how hot, cold, wet, or windy it might be!

Date:

Astronomy

Dec. 07, 2012 Rise Set
Actual Time 7:49 AM CST 4:50 PM CST
Civil Twilight 7:17 AM CST 5:22 PM CST
Nautical Twilight 6:40 AM CST 5:59 PM CST
Astronomical Twilight 6:05 AM CST 6:34 PM CST
Moon 12:58 AM CST (12/7) 12:58 PM CST (12/7)
Length of Visible Light 10h 05m
Length of Day
9h 00m
Last Quarter, 38% of the Moon is Illuminated
Dec 7
Last Quarter
Dec 13
New
Dec 19
First Quarter
Dec 28
Full
Jan 4
Last Quarter

Hourly Weather History & Observations

Time (CST) Temp. Windchill Dew Point Humidity Pressure Visibility Wind Dir Wind Speed Gust Speed Precip Events Conditions
12:00 AM 28.4 °F 22.2 °F 23.0 °F 80% 29.99 in 10.0 mi NNE 5.8 mph - N/A   Overcast
12:20 AM 28.4 °F 23.3 °F 23.0 °F 80% 29.99 in 10.0 mi NNE 4.6 mph - N/A   Overcast
12:40 AM 28.4 °F - 23.0 °F 80% 29.99 in 10.0 mi Calm Calm - N/A   Overcast
1:00 AM 28.4 °F 24.6 °F 23.0 °F 80% 29.98 in 10.0 mi ESE 3.5 mph - N/A   Overcast
1:20 AM 28.4 °F 23.3 °F 24.8 °F 86% 29.99 in 10.0 mi ESE 4.6 mph - N/A   Overcast
1:40 AM 26.6 °F 21.2 °F 24.8 °F 93% 29.98 in 10.0 mi ESE 4.6 mph - N/A   Overcast
2:00 AM 26.6 °F - 23.0 °F 86% 29.99 in 10.0 mi Calm Calm - N/A   Overcast
2:20 AM 26.6 °F - 24.8 °F 93% 29.99 in 10.0 mi Calm Calm - N/A   Overcast
2:40 AM 28.4 °F 24.6 °F 23.0 °F 80% 29.99 in 10.0 mi SE 3.5 mph - N/A   Overcast
3:00 AM 28.4 °F 24.6 °F 23.0 °F 80% 30.00 in 10.0 mi SSE 3.5 mph - N/A   Overcast
3:20 AM 28.4 °F 22.2 °F 23.0 °F 80% 29.99 in 10.0 mi SE 5.8 mph - N/A   Overcast
3:40 AM 28.4 °F 22.2 °F 23.0 °F 80% 29.98 in 10.0 mi SE 5.8 mph - N/A   Overcast
4:00 AM 28.4 °F 21.2 °F 23.0 °F 80% 29.97 in 10.0 mi ESE 6.9 mph - N/A   Overcast
4:20 AM 28.4 °F 19.7 °F 23.0 °F 80% 29.95 in 10.0 mi SE 9.2 mph - N/A   Overcast
4:40 AM 28.4 °F 18.5 °F 23.0 °F 80% 29.94 in 10.0 mi SE 11.5 mph - N/A   Overcast
5:00 AM 28.4 °F 21.2 °F 23.0 °F 80% 29.96 in 10.0 mi SSE 6.9 mph - N/A   Overcast
5:20 AM 28.4 °F 20.4 °F 23.0 °F 80% 29.96 in 10.0 mi SSE 8.1 mph - N/A   Overcast
5:40 AM 28.4 °F 20.4 °F 23.0 °F 80% 29.96 in 10.0 mi SSE 8.1 mph - N/A   Overcast
6:00 AM 28.4 °F 21.2 °F 23.0 °F 80% 29.97 in 10.0 mi South 6.9 mph - N/A   Overcast
6:20 AM 28.4 °F 23.3 °F 23.0 °F 80% 29.97 in 10.0 mi SSE 4.6 mph - N/A   Overcast
6:40 AM 28.4 °F - 23.0 °F 80% 29.98 in 10.0 mi Calm Calm - N/A   Overcast
7:00 AM 28.4 °F - 23.0 °F 80% 29.98 in 10.0 mi Calm Calm - N/A   Overcast
7:20 AM 28.4 °F 21.2 °F 24.8 °F 86% 29.97 in 10.0 mi NE 6.9 mph - N/A   Overcast
7:40 AM 28.4 °F 19.1 °F 23.0 °F 80% 29.97 in 10.0 mi NE 10.4 mph - N/A   Overcast
8:00 AM 28.4 °F 22.2 °F 23.0 °F 80% 29.98 in 10.0 mi ENE 5.8 mph - N/A   Overcast
8:20 AM 28.4 °F 20.4 °F 23.0 °F 80% 29.97 in 10.0 mi NE 8.1 mph - N/A   Overcast
8:40 AM 28.4 °F 21.2 °F 24.8 °F 86% 29.98 in 10.0 mi ENE 6.9 mph - N/A   Mostly Cloudy
9:00 AM 28.4 °F 20.4 °F 24.8 °F 86% 29.98 in 10.0 mi NE 8.1 mph - N/A   Scattered Clouds
9:20 AM 28.4 °F 20.4 °F 24.8 °F 86% 29.98 in 10.0 mi NNE 8.1 mph - N/A   Scattered Clouds
9:40 AM 28.4 °F 20.4 °F 24.8 °F 86% 29.98 in 10.0 mi NE 8.1 mph - N/A   Mostly Cloudy
10:00 AM 28.4 °F 21.2 °F 26.6 °F 93% 29.99 in 10.0 mi ENE 6.9 mph - N/A   Mostly Cloudy
10:20 AM 28.4 °F 19.1 °F 26.6 °F 93% 29.99 in 10.0 mi ENE 10.4 mph - N/A   Scattered Clouds
10:40 AM 28.4 °F 19.7 °F 28.4 °F 100% 29.98 in 1.5 mi East 9.2 mph - 0.08 in Snow Light Snow
11:00 AM 28.4 °F 20.4 °F 28.4 °F 100% 29.99 in 1.5 mi East 8.1 mph - 0.14 in Snow Light Snow
11:20 AM 28.4 °F 21.2 °F 28.4 °F 100% 29.98 in 1.2 mi ENE 6.9 mph - 0.08 in Snow Light Snow
11:40 AM 28.4 °F 20.4 °F 28.4 °F 100% 29.97 in 0.8 mi ENE 8.1 mph - 0.24 in Snow Light Snow
12:00 PM 28.4 °F 21.2 °F 28.4 °F 100% 29.96 in 0.8 mi ENE 6.9 mph - 0.55 in Snow Light Snow
12:20 PM 28.4 °F 19.7 °F 28.4 °F 100% 29.94 in 0.8 mi East 9.2 mph - 0.95 in Snow Light Snow
12:40 PM 26.6 °F 16.8 °F 26.6 °F 100% 29.94 in 1.5 mi East 10.4 mph - 1.05 in Snow Light Snow
1:00 PM 28.4 °F 19.1 °F 28.4 °F 100% 29.94 in 0.5 mi East 10.4 mph - 1.28 in Snow Snow
1:20 PM 28.4 °F 19.1 °F 28.4 °F 100% 29.93 in 1.0 mi East 10.4 mph - 0.21 in Snow Light Snow
1:40 PM 28.4 °F 18.5 °F 28.4 °F 100% 29.93 in 1.8 mi East 11.5 mph - 0.27 in Snow Light Snow
2:00 PM 28.4 °F 18.0 °F 28.4 °F 100% 29.93 in 1.0 mi East 12.7 mph - 0.39 in Snow Light Snow
2:20 PM 28.4 °F 17.5 °F 28.4 °F 100% 29.92 in 0.8 mi East 13.8 mph - 0.09 in Snow Light Snow
2:40 PM 28.4 °F 18.0 °F 28.4 °F 100% 29.92 in 1.5 mi East 12.7 mph - 0.12 in Snow Light Snow
3:00 PM 28.4 °F 18.5 °F 28.4 °F 100% 29.92 in 3.0 mi ESE 11.5 mph - 0.14 in Snow Light Snow
3:20 PM 28.4 °F 18.0 °F 28.4 °F 100% 29.93 in 1.5 mi ESE 12.7 mph - 0.02 in Snow Light Snow
3:40 PM 28.4 °F 19.1 °F 28.4 °F 100% 29.93 in 2.0 mi East 10.4 mph - 0.04 in Snow Light Snow
4:00 PM 28.4 °F 19.7 °F 28.4 °F 100% 29.95 in 1.5 mi East 9.2 mph - 0.09 in Snow Light Snow
4:20 PM 28.4 °F 19.7 °F 28.4 °F 100% 29.95 in 1.8 mi ESE 9.2 mph - 0.05 in Snow Light Snow
4:40 PM 26.6 °F 17.5 °F 26.6 °F 100% 29.95 in 4.0 mi East 9.2 mph - 0.08 in Snow Light Snow
5:00 PM 26.6 °F 17.5 °F 26.6 °F 100% 29.95 in 10.0 mi East 9.2 mph - 0.08 in Snow Light Snow
5:20 PM 26.6 °F 19.1 °F 26.6 °F 100% 29.96 in 10.0 mi East 6.9 mph - N/A Snow Light Snow
5:40 PM 26.6 °F 18.2 °F 26.6 °F 100% 29.96 in 5.0 mi East 8.1 mph - N/A Snow Light Snow
6:00 PM 26.6 °F 19.1 °F 26.6 °F 100% 29.97 in 3.0 mi ENE 6.9 mph - 0.04 in Snow Light Snow
6:20 PM 26.6 °F 18.2 °F 26.6 °F 100% 29.97 in 3.0 mi ENE 8.1 mph - 0.03 in Snow Light Snow
6:40 PM 26.6 °F 17.5 °F 26.6 °F 100% 29.98 in 5.0 mi ENE 9.2 mph - 0.07 in Snow Light Snow
7:00 PM 26.6 °F 19.1 °F 26.6 °F 100% 29.98 in 8.0 mi East 6.9 mph - 0.09 in Snow Light Snow
7:20 PM 24.8 °F 16.9 °F 24.8 °F 100% 29.98 in 5.0 mi ENE 6.9 mph - 0.01 in Snow Light Snow
7:40 PM 24.8 °F 17.9 °F 24.8 °F 100% 29.99 in 8.0 mi ENE 5.8 mph - 0.01 in Snow Light Snow
8:00 PM 24.8 °F 17.9 °F 24.8 °F 100% 29.99 in 10.0 mi ENE 5.8 mph - 0.02 in Snow Light Snow
8:20 PM 24.8 °F 16.9 °F 24.8 °F 100% 29.99 in 10.0 mi ENE 6.9 mph - N/A   Overcast
8:40 PM 24.8 °F 19.1 °F 24.8 °F 100% 29.99 in 10.0 mi NE 4.6 mph - N/A   Overcast
9:00 PM 24.8 °F 16.9 °F 24.8 °F 100% 29.99 in 10.0 mi NE 6.9 mph - N/A   Overcast
9:20 PM 24.8 °F 17.9 °F 24.8 °F 100% 29.99 in 10.0 mi NE 5.8 mph - N/A   Overcast
9:40 PM 24.8 °F 17.9 °F 24.8 °F 100% 29.99 in 9.0 mi ENE 5.8 mph - N/A   Overcast
10:00 PM 23.0 °F 14.7 °F 23.0 °F 100% 29.99 in 5.0 mi East 6.9 mph - N/A   Overcast
10:20 PM 23.0 °F 14.7 °F 23.0 °F 100% 29.99 in 5.0 mi East 6.9 mph - N/A   Overcast
10:40 PM 23.0 °F 14.7 °F 23.0 °F 100% 29.98 in 3.0 mi East 6.9 mph - N/A   Overcast
11:00 PM 23.0 °F 15.8 °F 23.0 °F 100% 29.97 in 0.5 mi East 5.8 mph - N/A Fog Light Freezing Fog
11:20 PM 19.4 °F - 19.4 °F 100% 29.98 in 0.2 mi Calm Calm - N/A Fog Light Freezing Fog
11:40 PM 23.0 °F - 23.0 °F 100% 29.99 in 0.2 mi Calm Calm - N/A Fog Light Freezing Fog